TimeCET,TemperatureF,Dew PointF,Humidity,Sea Level PressureIn,VisibilityMPH,Wind Direction,Wind SpeedMPH,Gust SpeedMPH,PrecipitationIn,Events,Conditions,WindDirDegrees,DateUTC
12:00 AM,36,35,93,30.04,2,NNW,2.2,,,Fog,Patches of Fog,330,2013-12-27 23:00:00
12:15 AM,35.6,33.8,93,30.01,1.2,Calm,Calm,-,N/A,,Partly Cloudy,0,2013-12-27 23:15:00
12:45 AM,35.6,33.8,93,30.01,1.2,Calm,Calm,-,N/A,,Mostly Cloudy,0,2013-12-27 23:45:00
1:00 AM,36,35,93,30.01,2,SSE,4.5,,,,Mist,160,2013-12-28 00:00:00
1:15 AM,37.4,35.6,93,30.01,1.2,NNE,2.2,-,N/A,,Mostly Cloudy,20,2013-12-28 00:15:00
1:45 AM,39.2,37.4,93,30.04,1.2,Calm,Calm,-,N/A,,Overcast,0,2013-12-28 00:45:00
2:00 AM,39,38,92,30.05,1,Calm,Calm,,,,Mist,,2013-12-28 01:00:00
2:15 AM,39.2,37.4,93,30.04,1.2,ENE,4.5,-,N/A,,Overcast,70,2013-12-28 01:15:00
2:45 AM,39.2,39.2,100,30.04,1.2,ENE,4.5,-,N/A,,Overcast,70,2013-12-28 01:45:00
3:00 AM,40,38,92,30.06,1,ENE,4.5,,,,Mist,70,2013-12-28 02:00:00
3:15 AM,39.2,37.4,93,30.01,1.2,ESE,4.5,-,N/A,,Scattered Clouds,110,2013-12-28 02:15:00
3:45 AM,39.2,37.4,93,30.01,1.2,Calm,Calm,-,N/A,,Scattered Clouds,0,2013-12-28 02:45:00
4:00 AM,38,37,93,30.04,1,Calm,Calm,,,Fog,Patches of Fog,,2013-12-28 03:00:00
4:15 AM,37.4,35.6,93,30.01,1.2,ESE,2.2,-,N/A,,Partly Cloudy,110,2013-12-28 03:15:00
4:45 AM,35.6,35.6,100,30.01,1.2,SE,4.5,-,N/A,,Partly Cloudy,140,2013-12-28 03:45:00
5:00 AM,36,35,95,30.04,1,SE,4.5,,,Fog,Patches of Fog,140,2013-12-28 04:00:00
5:15 AM,35.6,33.8,93,30.01,1.2,SSE,4.5,-,N/A,,Mist,150,2013-12-28 04:15:00
5:45 AM,-9999,-9999,N/A,-9999,1.9,SSE,6.7,-,N/A,,Scattered Clouds,160,2013-12-28 04:45:00
6:00 AM,40,39,96,30.05,1,SSE,4.5,,,Fog,Patches of Fog,150,2013-12-28 05:00:00
6:15 AM,39.2,37.4,93,30.04,1.9,SSE,6.7,-,N/A,,Mist,160,2013-12-28 05:15:00
6:45 AM,39.2,37.4,93,30.04,1.2,SSE,4.5,-,N/A,,Partly Cloudy,150,2013-12-28 05:45:00
7:00 AM,39,38,92,30.07,1,SSE,4.5,,,,Mist,150,2013-12-28 06:00:00
7:15 AM,39.2,37.4,93,30.04,1.2,SSE,4.5,-,N/A,,Partly Cloudy,150,2013-12-28 06:15:00
7:22 AM,39.2,37.4,93,30.04,0.9,SSE,4.5,-,N/A,,Partly Cloudy,160,2013-12-28 06:22:00
7:45 AM,37.4,37.4,100,30.04,0.7,SSE,4.5,-,N/A,,Partly Cloudy,150,2013-12-28 06:45:00
7:53 AM,-9999,-9999,N/A,-9999,1.9,South,8.9,-,N/A,,Scattered Clouds,170,2013-12-28 06:53:00
8:00 AM,38,37,94,30.08,1,SSE,4.5,,,,Mist,150,2013-12-28 07:00:00
8:13 AM,37.4,35.6,93,30.06,0.5,SSE,4.5,-,N/A,Fog,Fog,150,2013-12-28 07:13:00
8:15 AM,37.4,35.6,93,30.06,0.5,SSE,4.5,-,N/A,Fog,Fog,150,2013-12-28 07:15:00
8:45 AM,-9999,-9999,N/A,-9999,3.1,South,8.9,-,N/A,,Scattered Clouds,170,2013-12-28 07:45:00
8:51 AM,39.2,39.2,100,30.06,0.6,ESE,6.7,-,N/A,,Partly Cloudy,120,2013-12-28 07:51:00
9:00 AM,39,38,95,30.09,0,SE,4.5,,,Fog,Partial Fog,140,2013-12-28 08:00:00
9:15 AM,41.0,39.2,93,30.06,0.9,SSE,6.7,-,N/A,,Partly Cloudy,150,2013-12-28 08:15:00
9:36 AM,42.8,41.0,93,30.06,1.9,SSE,6.7,-,N/A,,Partly Cloudy,150,2013-12-28 08:36:00
9:45 AM,42.8,41.0,93,30.06,2.5,SSE,6.7,-,N/A,,Partly Cloudy,150,2013-12-28 08:45:00
10:00 AM,43,40,87,30.09,2,SSE,6.7,,,Fog,Light Fog,150,2013-12-28 09:00:00
10:15 AM,44.6,41.0,87,30.06,2.5,SSE,6.7,-,N/A,,Partly Cloudy,160,2013-12-28 09:15:00
10:45 AM,46.4,41.0,81,30.06,2.5,SSE,6.7,-,N/A,,Partly Cloudy,160,2013-12-28 09:45:00
10:55 AM,46.4,41.0,81,30.06,3.1,South,6.7,-,N/A,,Partly Cloudy,170,2013-12-28 09:55:00
11:00 AM,46,41,77,30.08,2,SSE,6.7,,,,Mist,160,2013-12-28 10:00:00
11:15 AM,48.2,41.0,76,30.04,3.1,SSE,6.7,-,N/A,,Partly Cloudy,160,2013-12-28 10:15:00
11:45 AM,-9999,-9999,N/A,-9999,3.1,SSE,6.7,-,N/A,,Mist,160,2013-12-28 10:45:00
12:00 PM,50,42,64,30.06,4,SSE,8.9,,,,,160,2013-12-28 11:00:00
12:15 PM,51.8,41.0,67,30.04,5.0,SSE,11.2,-,N/A,,Unknown,160,2013-12-28 11:15:00
12:45 PM,53.6,41.0,62,30.01,-9999.0,South,13.4,-,N/A,,Clear,170,2013-12-28 11:45:00
1:00 PM,53,41,54,30.04,6,South,13.4,,,,,170,2013-12-28 12:00:00
1:15 PM,53.6,41.0,62,30.01,-9999.0,South,8.9,-,N/A,,Clear,170,2013-12-28 12:15:00
1:45 PM,53.6,41.0,62,30.01,-9999.0,SSE,8.9,-,N/A,,Clear,160,2013-12-28 12:45:00
2:00 PM,54,42,52,30.03,6,SSE,8.9,,,,,160,2013-12-28 13:00:00
2:15 PM,53.6,41.0,62,30.01,-9999.0,SSE,8.9,-,N/A,,Clear,160,2013-12-28 13:15:00
2:45 PM,-9999,-9999,N/A,-9999,3.1,SSE,6.7,-,N/A,,Clear,160,2013-12-28 13:45:00
3:00 PM,53,42,57,30.02,6,SSE,6.7,,,,,160,2013-12-28 14:00:00
3:15 PM,51.8,41.0,67,30.01,-9999.0,South,4.5,-,N/A,,Clear,170,2013-12-28 14:15:00
3:45 PM,50.0,41.0,71,30.01,5.0,SSE,2.2,-,N/A,,Unknown,150,2013-12-28 14:45:00
4:00 PM,50,42,65,30.03,5,SSE,2.2,,,,,150,2013-12-28 15:00:00
4:15 PM,48.2,41.0,76,30.01,4.3,Calm,Calm,-,N/A,,Unknown,0,2013-12-28 15:15:00
4:45 PM,46.4,41.0,81,30.01,3.7,ESE,4.5,-,N/A,,Unknown,120,2013-12-28 15:45:00
5:00 PM,47,41,73,30.03,4,ESE,4.5,,,,,120,2013-12-28 16:00:00
5:15 PM,46.4,39.2,76,30.01,3.7,SE,6.7,-,N/A,,Unknown,130,2013-12-28 16:15:00
5:45 PM,-9999,-9999,N/A,-9999,3.1,SSE,6.7,-,N/A,Fog,Fog,160,2013-12-28 16:45:00
6:00 PM,46,40,74,30.02,4,SE,8.9,,,,,130,2013-12-28 17:00:00
6:15 PM,46.4,39.2,76,30.01,4.3,SSE,8.9,-,N/A,,Unknown,150,2013-12-28 17:15:00
6:45 PM,44.6,39.2,81,30.01,4.3,SE,8.9,-,N/A,,Unknown,140,2013-12-28 17:45:00
7:00 PM,44,40,80,30.02,4,SE,8.9,,,,,140,2013-12-28 18:00:00
7:15 PM,42.8,39.2,87,30.01,4.3,SSE,8.9,-,N/A,,Unknown,150,2013-12-28 18:15:00
7:45 PM,42.8,39.2,87,29.98,3.7,SE,6.7,-,N/A,,Unknown,140,2013-12-28 18:45:00
8:00 PM,43,40,83,30.01,4,SE,6.7,,,,,140,2013-12-28 19:00:00
8:15 PM,42.8,39.2,87,30.01,3.7,SSE,6.7,-,N/A,,Unknown,150,2013-12-28 19:15:00
8:45 PM,-9999,-9999,N/A,-9999,3.1,SSE,6.7,-,N/A,Fog,Fog,160,2013-12-28 19:45:00
9:00 PM,40,38,89,30.03,4,SSE,4.5,,,,,160,2013-12-28 20:00:00
9:07 PM,39.2,37.4,93,30.01,3.1,SE,6.7,-,N/A,,Mist,140,2013-12-28 20:07:00
9:15 PM,39.2,37.4,93,30.01,3.1,SE,4.5,-,N/A,,Mist,140,2013-12-28 20:15:00
9:45 PM,39.2,37.4,93,30.01,2.5,SSE,4.5,-,N/A,,Mist,150,2013-12-28 20:45:00
10:00 PM,40,38,89,30.03,2,SSE,4.5,,,,Mist,150,2013-12-28 21:00:00
10:02 PM,39.2,39.2,100,30.01,1.9,SSE,6.7,-,N/A,,Mist,150,2013-12-28 21:02:00
10:15 PM,39.2,37.4,93,30.01,1.9,SE,6.7,-,N/A,,Mist,140,2013-12-28 21:15:00
10:45 PM,41.0,37.4,87,30.01,1.9,SSE,4.5,-,N/A,,Mist,150,2013-12-28 21:45:00
11:00 PM,40,38,89,30.03,2,SSE,4.5,,,,Mist,150,2013-12-28 22:00:00
11:15 PM,39.2,37.4,93,29.98,1.9,SE,6.7,-,N/A,,Mist,140,2013-12-28 22:15:00
11:45 PM,-9999,-9999,N/A,-9999,1.9,North,-9999.0,-,N/A,Fog,Fog,0,2013-12-28 22:45:00